| time (UTC) | temp F | wind direction | speed MPH | gust MPH | rain 1hr in | rain 24hr in | rain mn in | humidity % | barometer mb |
| 20260905232619 | 74 | 339 | 5.0 | 5.0 | 0.00 | 0.01 | 0.01 | 38 | 1015.8 |
| 20260905231559 | 75 | 339 | 4.0 | 4.0 | 0.00 | 0.01 | 0.01 | 37 | 1015.9 |
| 20260905230558 | 75 | 339 | 3.0 | 4.0 | 0.00 | 0.01 | 0.01 | 37 | 1015.9 |
| 20260905225558 | 75 | 324 | 4.0 | 7.0 | 0.00 | 0.01 | 0.01 | 36 | 1016.2 |
| 20260905224558 | 74 | 322 | 3.0 | 3.0 | 0.00 | 0.01 | 0.01 | 36 | 1016.4 |
| 20260905223558 | 75 | 344 | 2.0 | 4.0 | 0.00 | 0.01 | 0.01 | 35 | 1016.6 |
| 20260905222558 | 74 | 288 | 3.0 | 6.0 | 0.00 | 0.01 | 0.01 | 37 | 1016.8 |
| 20260905221558 | 75 | 280 | 0.0 | 2.0 | 0.00 | 0.01 | 0.01 | 37 | 1016.9 |
| 20260905220558 | 74 | 281 | 1.0 | 3.0 | 0.00 | 0.01 | 0.01 | 39 | 1016.9 |
| 20260905215558 | 73 | 280 | 1.0 | 4.0 | 0.00 | 0.01 | 0.01 | 38 | 1017.1 |
| 20260905214558 | 73 | 274 | 3.0 | 3.0 | 0.00 | 0.01 | 0.01 | 39 | 1017.4 |
| 20260905213557 | 74 | 195 | 0.0 | 4.0 | 0.00 | 0.02 | 0.01 | 40 | 1017.4 |
| 20260905212557 | 73 | 243 | 2.0 | 5.0 | 0.00 | 0.02 | 0.01 | 42 | 1017.4 |
| 20260905211558 | 73 | 201 | 0.0 | 3.0 | 0.00 | 0.02 | 0.01 | 41 | 1017.7 |
| 20260905210557 | 73 | 155 | 2.0 | 6.0 | 0.00 | 0.03 | 0.01 | 45 | 1017.8 |
| 20260905205557 | 72 | 301 | 0.0 | 5.0 | 0.00 | 0.04 | 0.01 | 41 | 1017.9 |
| 20260905204557 | 73 | 292 | 3.0 | 3.0 | 0.00 | 0.04 | 0.01 | 42 | 1018.0 |
| 20260905203557 | 71 | 35 | 3.0 | 4.0 | 0.00 | 0.04 | 0.01 | 44 | 1018.0 |
| 20260905202557 | 71 | 309 | 2.0 | 8.0 | 0.00 | 0.04 | 0.01 | 45 | 1018.1 |
| 20260905201557 | 69 | 324 | 3.0 | 4.0 | 0.00 | 0.04 | 0.01 | 45 | 1018.2 |
| 20260905200617 | 69 | 25 | 3.0 | 3.0 | 0.00 | 0.05 | 0.01 | 42 | 1018.3 |
| 20260905195557 | 69 | 71 | 1.0 | 3.0 | 0.00 | 0.05 | 0.01 | 46 | 1018.4 |
| 20260905194556 | 68 | 71 | 0.0 | 1.0 | 0.00 | 0.05 | 0.01 | 49 | 1018.6 |
| 20260905193556 | 69 | 71 | 3.0 | 6.0 | 0.00 | 0.05 | 0.01 | 51 | 1018.8 |
| 20260905192557 | 67 | 312 | 0.0 | 5.0 | 0.00 | 0.05 | 0.01 | 53 | 1018.9 |
| 20260905191556 | 67 | 314 | 3.0 | 5.0 | 0.00 | 0.05 | 0.01 | 52 | 1019.1 |
| 20260905190556 | 66 | 354 | 4.0 | 6.0 | 0.00 | 0.05 | 0.01 | 58 | 1019.2 |
| 20260905185556 | 65 | 27 | 2.0 | 3.0 | 0.00 | 0.05 | 0.01 | 56 | 1019.3 |
| 20260905184556 | 65 | 27 | 2.0 | 3.0 | 0.00 | 0.05 | 0.01 | 54 | 1019.5 |
| 20260905183556 | 64 | 346 | 1.0 | 3.0 | 0.00 | 0.05 | 0.01 | 55 | 1019.6 |
| 20260905182556 | 64 | 345 | 2.0 | 6.0 | 0.00 | 0.05 | 0.01 | 59 | 1019.8 |
| 20260905181556 | 63 | 261 | 2.0 | 3.0 | 0.00 | 0.05 | 0.01 | 58 | 1019.9 |
| 20260905180556 | 62 | 352 | 1.0 | 4.0 | 0.00 | 0.05 | 0.01 | 58 | 1020.0 |
| 20260905175556 | 62 | 317 | 1.0 | 3.0 | 0.00 | 0.05 | 0.01 | 60 | 1020.1 |
| 20260905174555 | 61 | 318 | 1.0 | 3.0 | 0.00 | 0.05 | 0.01 | 65 | 1020.2 |
| 20260905173556 | 61 | 303 | 3.0 | 5.0 | 0.00 | 0.05 | 0.01 | 65 | 1020.2 |
| 20260905120552 | 46 | 129 | 0.0 | 0.0 | 0.00 | 0.04 | 0.00 | 87 | 1019.5 |
| 20260905115552 | 46 | 129 | 0.0 | 0.0 | 0.00 | 0.04 | 0.00 | 87 | 1019.4 |
| 20260905114552 | 46 | 129 | 0.0 | 0.0 | 0.00 | 0.04 | 0.00 | 87 | 1019.4 |
| 20260905113552 | 46 | 129 | 0.0 | 0.0 | 0.00 | 0.04 | 0.00 | 87 | 1019.3 |
| 20260905112552 | 47 | 129 | 0.0 | 1.0 | 0.00 | 0.04 | 0.00 | 87 | 1019.4 |
| 20260905111552 | 47 | 129 | 0.0 | 1.0 | 0.00 | 0.04 | 0.00 | 87 | 1019.4 |
| 20260905083550 | 51 | 129 | 0.0 | 1.0 | 0.00 | 0.06 | 0.00 | 86 | 1018.9 |
| 20260905082551 | 51 | 129 | 0.0 | 2.0 | 0.00 | 0.06 | 0.00 | 86 | 1018.7 |
| 20260905025547 | 53 | 324 | 0.0 | 2.0 | 0.00 | 0.29 | 0.18 | 77 | 1017.5 |
| 20260905024547 | 53 | 324 | 2.0 | 2.0 | 0.00 | 0.29 | 0.18 | 74 | 1017.4 |
| 20260905023547 | 54 | 324 | 0.0 | 0.0 | 0.00 | 0.29 | 0.18 | 74 | 1017.5 |
| 20260905022547 | 55 | 324 | 0.0 | 0.0 | 0.00 | 0.29 | 0.18 | 73 | 1017.5 |
| 20260904234546 | 58 | 329 | 1.0 | 3.0 | 0.00 | 0.29 | 0.18 | 62 | 1018.1 |
| 20260904233545 | 58 | 329 | 1.0 | 3.0 | 0.00 | 0.29 | 0.18 | 62 | 1018.1 |